FHESY LFPU-LFQB

Flight info

Callsign FHESY
Flight time N/A
Altitude 6000
Route VFR TRO
Aircraft DR40/L-VGD/A

Departure

Time 2026-04-30 07:30
Airport Moret-Episy Airfield (LFPU)

Arrival

Time N/A
Airport Troyes-Barberey Airport (LFQB)
Time Latitude Longitude Altitude Speed Heading
2026-04-30 07:20 48.34293 2.79844 243 ft 0 kts 148°
2026-04-30 07:26 48.34291 2.79846 241 ft 1 kts 155°
2026-04-30 07:26 48.34265 2.79867 244 ft 7 kts 149°
2026-04-30 07:26 48.34213 2.79884 247 ft 0 kts 181°
2026-04-30 07:28 48.34202 2.79886 248 ft 7 kts 170°
2026-04-30 07:28 48.34142 2.79825 249 ft 16 kts 233°
2026-04-30 07:28 48.34072 2.79663 249 ft 21 kts 244°
2026-04-30 07:29 48.34013 2.79509 248 ft 12 kts 239°
2026-04-30 07:29 48.33960 2.79384 247 ft 12 kts 245°
2026-04-30 07:29 48.33924 2.79313 248 ft 6 kts 111°
2026-04-30 07:29 48.33924 2.79319 248 ft 0 kts 58°
2026-04-30 07:30 48.34201 2.79921 383 ft 56 kts 61°
2026-04-30 07:30 48.34423 2.80372 679 ft 59 kts 54°
2026-04-30 07:30 48.34851 2.80621 997 ft 66 kts
2026-04-30 07:31 48.35368 2.80401 1176 ft 91 kts 349°
2026-04-30 07:31 48.36022 2.80462 1146 ft 101 kts 22°
2026-04-30 07:31 48.36427 2.80065 1053 ft 107 kts 233°
2026-04-30 07:31 48.36051 2.79228 1429 ft 86 kts 207°
2026-04-30 07:32 48.35491 2.78998 1443 ft 89 kts 161°
2026-04-30 07:32 48.34891 2.79241 1480 ft 95 kts 147°
2026-04-30 07:32 48.34260 2.79683 1496 ft 100 kts 136°
2026-04-30 07:32 48.34135 2.80486 1947 ft 71 kts 90°
2026-04-30 07:33 48.34236 2.81137 2343 ft 64 kts 85°
2026-04-30 07:33 48.34332 2.81798 2547 ft 70 kts 94°
2026-04-30 07:33 48.34389 2.82487 2899 ft 65 kts 92°
2026-04-30 07:33 48.34402 2.83193 3166 ft 68 kts 91°
2026-04-30 07:34 48.34475 2.83907 3412 ft 73 kts 83°
2026-04-30 07:34 48.34623 2.84649 3611 ft 72 kts 81°
2026-04-30 07:34 48.34664 2.85389 3837 ft 71 kts 95°
2026-04-30 07:34 48.34654 2.86145 4117 ft 71 kts 95°
2026-04-30 07:35 48.34622 2.86852 4391 ft 67 kts 95°
2026-04-30 07:35 48.34587 2.87597 4582 ft 72 kts 94°
2026-04-30 07:35 48.34584 2.88331 4822 ft 71 kts 93°
2026-04-30 07:35 48.34583 2.89084 5003 ft 73 kts 94°
2026-04-30 07:36 48.34697 2.89824 5209 ft 81 kts 74°
2026-04-30 07:36 48.34661 2.90611 5305 ft 77 kts 96°
2026-04-30 07:36 48.34643 2.91220 5412 ft 46 kts 98°
2026-04-30 07:36 48.34661 2.91547 4825 ft 82 kts 60°
2026-04-30 07:37 48.34850 2.92299 4935 ft 73 kts 95°
2026-04-30 07:37 48.34792 2.92832 5038 ft 25 kts 135°
2026-04-30 07:37 48.34798 2.93339 4370 ft 66 kts 95°
2026-04-30 07:37 48.34835 2.93901 4785 ft 40 kts 84°
2026-04-30 07:38 48.34903 2.94479 4844 ft 61 kts 100°
2026-04-30 07:38 48.34833 2.95222 4950 ft 82 kts 99°
2026-04-30 07:38 48.34754 2.96135 5101 ft 70 kts 99°
2026-04-30 07:38 48.34702 2.96779 5463 ft 69 kts 99°